Weather History for PAHO - March, 2015

Change the Weather History Date:

Thursday, March 12, 2015

  Actual Average Record
Temperature  
Mean Temperature 16 °F -  
Max Temperature 23 °F 36 °F 50 °F (1937)
Min Temperature 10 °F 22 °F -2 °F (1951)
Degree Days  
Heating Degree Days 50    
Moisture  
Dew Point -3 °F    
Average Humidity 43    
Maximum Humidity 61    
Minimum Humidity 29    
Precipitation  
Precipitation 0.00 in - - ()
Sea Level Pressure  
Sea Level Pressure 29.54 in    
Wind  
Wind Speed 7 mph (NNE)    
Max Wind Speed 13 mph    
Max Gust Speed -    
Visibility 10 miles    
Events      
Averages and records for this station are not official NWS values.
T = Trace of Precipitation, MM = Missing Value Source: NWS Daily Summary

Daily Weather History Graph

Daily Weather History Graph

Search for Another Location

Airport or City:

Trip Planner

Search our weather history database for the weather conditions in past years. The results will help you decide how hot, cold, wet, or windy it might be!

Date:

Astronomy

Mar. 12, 2015 Rise Set
Actual Time 8:31 AM AKDT 8:01 PM AKDT
Civil Twilight 7:50 AM AKDT 8:42 PM AKDT
Nautical Twilight 7:02 AM AKDT 9:30 PM AKDT
Astronomical Twilight 6:11 AM AKDT 10:21 PM AKDT
Moon 3:14 AM AKDT (3/12) 11:11 AM AKDT (3/12)
Length of Visible Light 12h 51m
Length of Day
11h 29m
Waning Gibbous, 59% of the Moon is Illuminated
Mar 12
Waning Gibbous
Mar 13
Last Quarter
Mar 20
New
Mar 26
First Quarter
Apr 4
Full

Hourly Weather History & Observations

Time (AKDT) Temp. Windchill Dew Point Humidity Pressure Visibility Wind Dir Wind Speed Gust Speed Precip Events Conditions
12:53 AM 14.0 °F 3.9 °F -4.0 °F 45% 29.62 in 10.0 mi NNE 6.9 mph - N/A   Clear
1:53 AM 14.0 °F 2.9 °F -2.9 °F 47% 29.60 in 10.0 mi NE 8.1 mph - N/A   Clear
2:53 AM 12.9 °F 2.6 °F -2.0 °F 51% 29.58 in 10.0 mi NNE 6.9 mph - N/A   Clear
3:53 AM 14.0 °F 8.2 °F -2.0 °F 49% 29.57 in 10.0 mi ENE 3.5 mph - N/A   Clear
4:53 AM 12.9 °F 0.7 °F -0.0 °F 56% 29.56 in 10.0 mi ENE 9.2 mph - N/A   Clear
5:53 AM 14.0 °F 5.1 °F 1.0 °F 56% 29.54 in 10.0 mi NE 5.8 mph - N/A   Clear
6:53 AM 10.0 °F 1.8 °F -0.9 °F 61% 29.53 in 10.0 mi NE 4.6 mph - N/A   Clear
7:53 AM 10.0 °F 0.4 °F -2.9 °F 56% 29.52 in 10.0 mi NE 5.8 mph - N/A   Clear
8:53 AM 10.0 °F -1.9 °F -4.0 °F 53% 29.51 in 10.0 mi NNE 8.1 mph - N/A   Clear
9:53 AM 16.0 °F 3.6 °F -5.1 °F 39% 29.50 in 10.0 mi NE 10.4 mph - N/A   Clear
10:53 AM 17.1 °F 5.0 °F -5.1 °F 37% 29.50 in 10.0 mi ENE 10.4 mph - N/A   Clear
11:53 AM 19.9 °F 11.1 °F -4.0 °F 35% 29.50 in 10.0 mi ENE 6.9 mph - N/A   Clear
12:53 PM 19.0 °F 12.3 °F -0.0 °F 43% 29.50 in 10.0 mi East 4.6 mph - N/A   Mostly Cloudy
1:53 PM 21.0 °F - 1.0 °F 42% 29.51 in 10.0 mi Calm Calm - N/A   Scattered Clouds
2:53 PM 21.9 °F 11.7 °F -5.1 °F 30% 29.50 in 10.0 mi NNW 9.2 mph - N/A   Overcast
3:53 PM 21.0 °F 11.4 °F -6.0 °F 30% 29.50 in 10.0 mi North 8.1 mph - N/A   Clear
4:53 PM 21.9 °F 13.4 °F -6.0 °F 29% 29.51 in 10.0 mi NE 6.9 mph - N/A   Clear
5:53 PM 19.9 °F 10.1 °F -7.1 °F 30% 29.51 in 10.0 mi North 8.1 mph - N/A   Clear
6:53 PM 19.9 °F 8.6 °F -6.0 °F 32% 29.52 in 10.0 mi North 10.4 mph - N/A   Clear
7:53 PM 17.1 °F 6.6 °F -5.1 °F 37% 29.53 in 10.0 mi North 8.1 mph - N/A   Clear
8:53 PM 16.0 °F 3.6 °F -2.9 °F 43% 29.55 in 10.0 mi North 10.4 mph - N/A   Clear
9:53 PM 16.0 °F 2.3 °F -2.9 °F 43% 29.56 in 10.0 mi North 12.7 mph - N/A   Clear
10:53 PM 12.0 °F 2.7 °F -2.9 °F 51% 29.57 in 10.0 mi NE 5.8 mph - N/A   Clear
11:53 PM 12.9 °F 2.6 °F -6.0 °F 43% 29.56 in 10.0 mi North 6.9 mph - N/A   Clear